• Join FlightAware (Why Join?)
  • Login
  • US Flag 
05:42PM EDT


 

Airport Tracker/Info


-or-


 

Live Flight TrackerFlight Track Log ✈ N779NC ✈ 06-Jul-2013 ✈ KDTW - KORD

Flight Track Log - Related Links

Times and Time Zones

All times are in EDT time to prevent confusion due to time zone crossing. See the N779NC flight status page for this flight to view local times or setup timezone preferences in your user account.

Time Position Orientation Groundspeed Altitude Reporting Facility
EDT Latitude Longitude Course Direction KTS MPH feet Rate Location/Type
12:53PM 42.2017 -83.3583 225° Southwest 158 182 1,400  Level Cleveland Center
12:54PM 42.1669 -83.4044 225° Southwest 225 259 3,100 2,100 Climbing Cleveland Center
12:55PM 42.1236 -83.4725 229° Southwest 249 287 5,600 2,160 Climbing Cleveland Center
12:57PM 42.1883 -83.6350 298° West 290 334 9,600 1,740 Climbing Cleveland Center
12:58PM 42.2661 -83.7594 310° West 299 344 11,400 1,680 Climbing Cleveland Center
12:59PM 42.3344 -83.8583 313° West 332 382 13,700 2,100 Climbing Cleveland Center
01:00PM 42.4044 -83.9606 313° West 353 406 15,600 1,800 Climbing Cleveland Center
01:01PM 42.4233 -84.0939 281° West 353 406 17,400 1,560 Climbing Cleveland Center
01:02PM 42.4272 -84.2347 272° West 365 420 18,800 1,500 Climbing Cleveland Center
01:03PM 42.4308 -84.3783 272° West 372 428 20,500 1,440 Climbing Cleveland Center
01:05PM 42.4394 -84.5661 274° West 387 445 22,400 1,320 Climbing Chicago Center
01:06PM 42.4461 -84.7469 273° West 399 459 23,900 1,320 Climbing Chicago Center
01:07PM 42.4556 -84.8994 275° West 406 467 25,200 1,200 Climbing Chicago Center
01:08PM 42.4603 -85.0531 272° West 409 471 26,400 960 Climbing Chicago Center
01:09PM 42.4669 -85.2106 273° West 416 479 27,200 600 Climbing Chicago Center
01:10PM 42.4672 -85.3711 270° West 425 489 27,700 -300 Climbing Chicago Center
01:11PM 42.4633 -85.5386 268° West 440 506 26,700 -1,200 Descending Chicago Center
01:12PM 42.4722 -85.7392 274° West 444 511 25,300 -1,320 Descending Chicago Center
01:13PM 42.4789 -85.9094 273° West 449 517 24,000 -1,260 Descending Chicago Center
01:14PM 42.4686 -86.0781 265° West 451 519 22,700 -1,260 Descending Chicago Center
01:15PM 42.4767 -86.2406 274° West 433 498 21,400 -1,380 Descending Chicago Center
01:16PM 42.5128 -86.3875 288° West 410 472 19,900 -1,500 Descending Chicago Center
01:17PM 42.5300 -86.5294 279° West 376 433 18,400 -2,040 Descending Chicago Center
01:18PM 42.5461 -86.6697 279° West 373 429 15,700 -2,520 Descending Chicago Center
01:19PM 42.5372 -86.8100 265° West 375 432 13,300 -2,340 Descending Chicago Center
01:20PM 42.4994 -86.9517 250° West 341 392 10,900 -1,560 Descending Chicago Center
01:21PM 42.4744 -87.0708 254° West 330 380 10,100 -720 Descending Chicago Center
01:22PM 42.4472 -87.1886 253° West 328 377 9,500 -540 Descending Chicago Center
01:23PM 42.4169 -87.3003 250° West 321 369 9,100 -600 Descending Chicago Center
01:24PM 42.3908 -87.3950 250° West 274 315 8,300 -960 Descending Chicago Center
01:25PM 42.3492 -87.5069 243° Southwest 269 310 7,200 -660 Descending Chicago Center
01:26PM 42.2925 -87.5711 220° Southwest 272 313 7,000 -120 Descending Chicago Center
01:27PM 42.2339 -87.6325 218° Southwest 269 310 7,000 -840 Level Chicago Center
01:28PM 42.1822 -87.6931 221° Southwest 250 288 5,300 -1,680 Descending Chicago Center